COSMOS 1428

Satellite information

Favourite Embed

Satellite Type and Status

PAYLOADIN ORBIT

Key statistics

Satellite COSMOS 1428 at a glance.

Uptime

15458

Days in orbit

Revolutions

≈ 13.8

Per day

Orbit

LEO

Low Earth Orbit

Inclination

82.9

Latest

Satellite identification and parameters

Extended collection of information and parameters for COSMOS 1428.

Object identification

Identified? True

Debris? False

Object name: COSMOS 1428

International designator: 1983-001A

Object number (NORAD): 13757

Object ID (CCSDS): 13757

Country: COMMONWEALTH OF INDEPENDENT STATES (CIS)

Current information (Y/N): Y

RCS size: LARGE

Orbital parameters

Period: 104.572 minutes

Inclination: 82.9128 deg

SMA: 7352.516 km

Apoapsis: 998.934 km

Periapsis: 949.829 km

RAAN: 343.709 deg

Eccentricy: 0.0033393

Argument of periapsis: 295.3879 deg

Mean anomaly: 108.8882 deg

Mean motion: 13.77047009 rev/day

Mean motion (dot): 0.00000077 rev/day2

B* drag term: 0.000062286 1/REarth

Two-line elements (TLE)

Creation date: May 9, 2025, 2:46 a.m.

Reference frame: TEME

Reference center: EARTH

Epoch: May 8, 2025, 5:29 p.m. UTC

TLE line 0: 0 COSMOS 1428

TLE line 1: 1 13757U 83001A 25128.72875814 .00000077 00000-0 62286-4 0 9997

TLE line 2: 2 13757 82.9128 343.7090 0033393 295.3879 108.8882 13.77047009126030

Live tracking on map

Real-time ground track for satellite COSMOS 1428.

In-orbit conjunctions

A list of the most updated potential collisions computed for object COSMOS 1428.

Target Orbit TCA Probability of collision Miss distance Type
DELTA 1 DEB SSO 2025-04-04 06:21:11 0.0001436467 277.0 (m) DEBRIS
SL-8 R/B LEO 2024-12-13 22:38:19 0.0002307254 295.0 (m) ROCKET BODY
CZ-6A DEB LEO 2024-11-01 00:50:16 0.0003086771 488.0 (m) DEBRIS
FENGYUN 1C DEB SSO 2024-10-23 00:18:09 0.0004139244 562.0 (m) DEBRIS
FENGYUN 1C DEB SSO 2024-10-21 11:06:53 0.0004315277 58.0 (m) DEBRIS

Associated space launch

Navigation satellite providing location information for the Tsiklon-B navigation system

COSMOS 1428 was lifted into orbit during the mission ‘Kosmos-3M | Parus 36’, on board a Kosmos-3M space rocket.

The launch took place on Jan. 12, 1983, 2:02 p.m. from 132/2.

For more information about the launch, click the button.

Launch to space Kosmos-3M | Parus 36
Kosmos-3M | Parus 36

Agency: N/A

Status: Launch Successful

Launch date: Jan. 12, 1983, 2:02 p.m. UTC

Rocket: Kosmos-3M

Launch pad: 132/2

Location: Plesetsk Cosmodrome, Russian Federation

...

Latest news about this satellite

There are no fresh news available about this satellite. Check back as we update our databases every day.


Newsletter sign-up

Weekly statistics, charts and insights to help you stay on top of the space industry.